User: anonymous   Login
Location: Unspecified
(0.0000°N, 0.0000°E)
Time: 20:19:29
(UTC+00:00)
Language:

APRIZESAT 3 - Orbit

View from above orbital plane
View from above orbital plane
View from above satellite
View from above satellite

Ground track
Ground track

The orbit is defined by the following mean orbital elements,

1 35686U          26145.42769520 +.00000000 +00000-0 +17136-3 0 00005
2 35686  98.2035 297.5668 0062726 141.4267 219.1459 14.96151275    00
Epoch (UTC): 25 May 2026 10:15:52
Eccentricity: 0.0062726
inclination: 98.2035°
perigee height: 535 km
apogee height: 622 km
right ascension of ascending node: 297.5668°
argument of perigee: 141.4267°
revolutions per day: 14.96151275
mean anomaly at epoch: 219.1459°

The dashed part of the orbit path shows where the satellite is in the earth's shadow,  

DLR